Weather in Santa Barbara

Venezuela     8°59′28″N   71°53′55″W
temp.,
°C
wind,
m/s
gust,
m/s
humid.,
%
clouds,
%
prec.,
mm/h
press.,
hPa
HPBL,
m
25 january, tue
tue2523:00+24n377972 0.1 1010146
02:00+23wnw228827 0.9 101026
05:00+22w238997 0.2 101050
08:00+23wsw228690 0.2 1012108
11:00+30nw115594 0.0 10131126
14:00+34nne323916 0.0 10092101
17:00+32ene664968 0.0 1007748
20:00+26ne347132 0.1 100855
26 january, wed
wed2623:00+24n3582100 0.0 1011111
02:00+23nw2384100 0.6 101062
05:00+22w2392100 1.1 101148
08:00+23wsw2287100 1.7 1013119
11:00+29n226385 0.1 1013973
14:00+29ne4461100 0.3 1010589
17:00+31ne4353100 0.0 10081015
20:00+26ne227651 0.0 100922
27 january, thu
thu2723:00+24nne3586100 0.3 101199
02:00+23nw2379100 0.4 101153
05:00+22wnw2284100 0.1 101139
08:00+23wsw1183100 0.1 101389
11:00+29nnw1160100 0.0 10141161
14:00+32e224898 0.3 10111853
17:00+32ese224916 0.1 10091410
20:00+26e227541 0.1 101019
28 january, fri
fri2823:00+23nne23885 1.6 101235
02:00+22nnw249613 6.7 101199
05:00+22w229845 4.3 101182
08:00+22w119443 5.7 1013122
11:00+27nw117065 0.2 1014908
14:00+32ne334849 0.6 10101811
17:00+32e225046 0.1 10081255
20:00+26ne22760 0.1 100933
29 january, sat
sat2923:00+24ne23820 0.1 101152
02:00+23nw22870 0.1 101032
05:00+22wnw22875 0.1 101028
08:00+22wnw12825 0.1 101392
11:00+29w11574 0.0 1014960
14:00+33ene12421 0.0 10101738
17:00+32ene64474 0.0 10081151
20:00+25e35710 0.0 100981